カタリナ-クリステンセン彗星

C/2006 YC ( Catalina-Christensen )

English version
Home page
Updated on January 20, 2013

---------------------------------------------------------------------

・ プロフィール

発見日 2006年12月16日
発見光度 20.0等, 19.4等
発見者 Catalina Sky Survey, E. J. Christensen (Mount Lemmon Survey)

・ 軌道要素

Epoch 2006 Sept. 22.0 TT = JDT 2454000.5
T 2006 Sept. 11.73109 TT                                MPC
q   4.9480872            (2000.0)            P               Q
z  -0.0000493      Peri.  335.51200     -0.75714070     -0.51135452
 +/-0.0000118      Node   154.28880     +0.63640047     -0.43695515
e   1.0002439      Incl.   69.55806     -0.14741916     +0.73999105
From 131 observations 2006 Dec. 16-2007 Apr. 15, mean residual 0".6.

・ 光度変化

        m1 = 8.5 + 5 logΔ + 10.0 log r

---------------------------------------------------------------------

軌道要素はM.P.E.C. 2013-A29に掲載されたものです。
光度グラフはComet for Windowsで作成したものです。

---------------------------------------------------------------------

Copyright(C) Seiichi Yoshida (comet@aerith.net). All rights reserved.